Regional Weather Roundup
Issued by NWS

Home | Current Version | Previous Version | Graphics & Text | Print | Product List | Glossary On
Versions: 1 2 3 4 5 6 7 8 9 10 11 12 13 14 15 16 17 18 19 20 21 22 23 24 25 26 27 28 29 30 31 32 33 34 35 36 37 38 39 40 41 42 43 44 45 46 47 48 49 50
000
ASUS45 KBOU 212310
RWRCO

WEATHER ROUNDUP FOR COLORADO
NATIONAL WEATHER SERVICE DENVER/BOULDER CO
500 PM MDT SAT APR 21 2018

NOTE: "FAIR" INDICATES FEW OR NO CLOUDS BELOW 12000 FEET WITH NO
SIGNIFICANT WEATHER AND/OR OBSTRUCTIONS TO VISIBILITY.

COZ001>005-013-030-031-220000-
...NORTHWEST COLORADO...

CITY           SKY/WX    TMP DP  RH WIND       PRES   REMARKS
CRAIG          FAIR      55  36  48 E5        30.16F
HAYDEN         FAIR      51  35  54 CALM      30.19F
MEEKER         FAIR      52  36  54 VRB5      30.18F
RANGELY        FAIR      62  36  37 SW5       30.12F
RABBIT EARS PA FOG      N/A N/A N/A W8G16     30.24S VSB<1/4
STEAMBOAT SPGS PTSUNNY   41  34  76 E8        30.19F
WALDEN         CLOUDY    39  30  70 S8        30.20R
$$

COZ006>008-011-220000-
...WEST CENTRAL VALLEYS...

CITY           SKY/WX    TMP DP  RH WIND       PRES   REMARKS
GRAND JUNCTION FAIR      63  34  33 SE12      30.13F
MONTROSE       PTSUNNY   55  32  41 CALM      30.20F
EAGLE          CLOUDY    47  33  58 CALM      30.23S
RIFLE          FAIR      53  36  52 NE5       30.19S
DELTA          FAIR      61  36  39 NE7       30.17S
NUCLA          FAIR      61  27  27 NE16      30.18S
$$

COZ017>023-064>068-220000-
...SOUTHWEST COLORADO...

CITY           SKY/WX    TMP DP  RH WIND       PRES   REMARKS
DURANGO        FAIR      64  26  23 SW16G22   30.06S
CORTEZ         FAIR      63  29  27 N17G28    30.12S
PAGOSA SPRINGS PTSUNNY   60  18  20 S8G16     30.11R
TELLURIDE      FAIR      45  29  52 NE7       30.26S
WOLF CREEK PAS FAIR      32  21  64 W7        30.35R WCI  26
$$

COZ009-010-012-014-032>034-037-058>063-220000-
...CENTRAL COLORADO...

CITY           SKY/WX    TMP DP  RH WIND       PRES   REMARKS
ASPEN          CLOUDY    41  32  70 N3        30.23R
BUENA VISTA    PTSUNNY   49  26  39 NW22      30.15R
COPPER MTN     NOT AVBL
BERTHOUD PASS  CLOUDY    19  10  68 NW31G43   30.21R WCI   0
COTTONWOOD PAS FAIR      45  30  57 N8        30.19S
GUNNISON       CLOUDY    46  30  53 SW14G23   30.19R
GRANBY         CLOUDY    35  32  88 SW3       30.21R
KREMMLING      CLOUDY    46  32  57 CALM      30.21R
LEADVILLE      CLOUDY    33  26  75 N9        30.21R WCI  25
MONARCH PASS     N/A     27  25  93 W17       30.38R WCI  14
SALIDA         CLOUDY    50  34  54 E8        30.19S
SUNLIGHT       FOG      N/A N/A N/A NW9       30.34R VSB 1/2
WILKERSON PASS CLOUDY    30  28  93 NW7       30.23R WCI  23
$$

COZ069>075-220000-
...SAN LUIS VALLEY/SANGRE DE CRISTO MOUNTAINS...

CITY           SKY/WX    TMP DP  RH WIND       PRES   REMARKS
ALAMOSA        FAIR      57  23  26 N18G28    30.10R
DEL NORTE      FAIR      55  23  29 N16       30.13R
LA VETA PASS   FOG       32  28  86 N6        30.29S VSB<1/4 WCI  26
SAGUACHE       NOT AVBL
$$

COZ035-036-038>040-220000-
...NORTHERN COLORADO FRONT RANGE...

CITY           SKY/WX    TMP DP  RH WIND       PRES   REMARKS
DENVER INTL AP CLOUDY    38  34  85 SW7       30.18R
AURORA         DRIZZLE   37  36  95 CALM      30.19R
FRONT RANGE AP CLOUDY    39  37  93 W6        30.19R
ERIE MUNI ARPT CLOUDY    40  35  81 CALM      30.24R
BOULDER MUN AP CLOUDY    41  36  81 CALM      30.18R
CENTENNIAL     LGT RAIN  37  34  89 CALM      30.18S
BROOMFIELD     CLOUDY    39  36  87 CALM      30.19R
FORT COLLINS   LGT RAIN  41  37  86 S8        30.18R
LONGMONT       NOT AVBL
$$

COZ041-046-047-076>085-087-088-220000-
...PIKES PEAK/PALMER DIVIDE AND SOUTHERN FOOTHILLS...

CITY           SKY/WX    TMP DP  RH WIND       PRES   REMARKS
COLO. SPRINGS  CLOUDY    41  31  67 N10       30.17R
A. F. ACADEMY  CLOUDY    39  30  69 N13       30.17R
SCHRIEVER AFB  NOT AVBL
CHEYENNE MTN   CLOUDY    36  32  87 N3        30.12R
ELLICOTT         N/A    N/A N/A N/A N9        30.17R
FALCON         CLOUDY    36  29  76 N8        30.19R
FORT CARSON    CLOUDY    42  33  70 CALM      30.17R
LIMON          CLOUDY    39  34  82 N8        30.18R
MONUMENT HILL  FLURRIES  32  30  93 N7        30.19R WCI  26
CANON CITY     CLOUDY    45  37  76 SE6       30.18R
WALSENBURG     NOT AVBL
TRINIDAD       LGT RAIN  45  35  68 N9        30.16R
$$

COZ042>045-048>051-090-091-220000-
...NORTHEAST COLORADO...

CITY           SKY/WX    TMP DP  RH WIND       PRES   REMARKS
GREELEY ARPT   CLOUDY    47  34  60 VRB5      30.19R
AKRON          CLOUDY    41  36  82 N3        30.18F
BURLINGTON     CLOUDY    41  37  86 N8        30.19R
WRAY           CLOUDY    41  37  87 CALM      30.21S
YUMA           CLOUDY    39  34  81 E6        30.19S
STERLING       NOT AVBL
HOLYOKE        CLOUDY    43  37  81 NE6       30.21S
FORT MORGAN    PTSUNNY   44  34  68 E6        30.19S
$$

COZ086-089-092>099-220000-
...SOUTHEAST COLORADO...

CITY           SKY/WX    TMP DP  RH WIND       PRES   REMARKS
PUEBLO         CLOUDY    49  34  56 E6        30.17R
LA JUNTA       CLOUDY    50  36  58 NE10      30.16R
LAMAR          CLOUDY    47  37  68 NE12      30.15S
SPRINGFIELD      N/A     45  37  73 NE16      30.14R
$$



USA.gov is the U.S. government's official web portal to all federal, state and local government web resources and services.